Location: Newark
(42.8481°N, 0.4872°E)
Time: 08:08:48
(UTC+00:00)

SR - Pass Details

Date: 31 October 2020
Orbit: 579 x 876 km, 66.7° (Epoch: 29 November)

Event Time Altitude Azimuth Distance (km) Brightness Sun altitude
Rises 08:37:46 0° 340° (NNW) 3,035 ? 19.0°
Reaches altitude 10° 08:40:43 10° 359° (N) 2,175 ? 19.4°
Maximum altitude 08:44:10 19° 43° (NE) 1,731 ? 19.9°
Drops below altitude 10° 08:47:48 10° 87° (E) 2,307 ? 20.3°
Sets 08:51:01 0° 105° (ESE) 3,291 ? 20.8°
